sat.trackr.live / text

‹ back to catalog

KUIPER-00511

NORAD 68888 · 2026-095AA

PAYLOAD ACTIVE UNKNOWN

§ Identity

Operator
Country
US
Launch date
2026-04-28
Launch site
AFETR
Launch vehicle
Mass (kg)
RCS (m²)

External: N2YO · Heavens-Above · Gunter

§ Orbital elements

Epoch: 2026-09-19T11:04:19.164288Z

Period
97.30 min
Inclination
51.9014°
Eccentricity
0.0001068
Mean motion
14.79928091 rev/d
Perigee alt
628.8 km
Apogee alt
630.3 km
Semi-major
7,007.7 km
B*
1.2333e-4
RAAN
171.3818°
Arg perigee
76.4425°
Mean anomaly
283.6656°
Rev number
2,188

§ Raw data

KUIPER-005111 68888U 26095AA  26262.46133292  .00000719  00000+0  12333-3 0  99992 68888  51.9014 171.3818 0001068  76.4425 283.6656 14.79928091 21887

JSON: /api/v1/satellites/68888 · /tle

For live sub-satellite position, see the globe view (requires WebGL).

§ Visibility from observer

Set your observer location to see the next 7 days of passes ≥ 10°. The values pass through the URL so the page stays shareable.

No JS? Fill the form by hand. The geolocation button needs JavaScript.